Location: Bonningues
(50.7927°N, 2.0150°E)
Time: 17:50:32
(UTC+00:00)

Cosmos 841 Rocket - Pass Details

Date: 08 August 2020
Orbit: 746 x 773 km, 74.0° (Epoch: 25 September)

Event Time Altitude Azimuth Distance (km) Brightness Sun altitude
Rises 23:13:57 0° 329° (NNW) 3,230 7.9 -22.7°
Reaches altitude 10° 23:16:30 10° 320° (NW) 2,304 6.8 -22.8°
Maximum altitude 23:21:08 33° 258° (WSW) 1,261 4.5 -22.9°
Enters shadow 23:22:05 31° 236° (SW) 1,322 4.5 -23.0°
